AUA18Z LOWW-EDDM

Flight info

Callsign AUA18Z
Flight time 0h 39m
Altitude 28000
Route SOVIL DCT SITNI DCT BAGSI DCT MATIG DCT AMADI Q113 NAPSA NAPSA1B
Aircraft A320/M-SDE3FGHIRWY/LB1

Departure

Time 2026-05-07 04:22
Airport Vienna International Airport (LOWW)

Arrival

Time 2026-05-07 05:02
Airport Munich Airport (EDDM)
Time Latitude Longitude Altitude Speed Heading
2026-05-07 03:45 48.11765 16.56628 625 ft 0 kts 26°
2026-05-07 04:14 48.11761 16.56625 610 ft 3 kts 26°
2026-05-07 04:14 48.11737 16.56606 618 ft 4 kts 31°
2026-05-07 04:14 48.11715 16.56584 625 ft 4 kts 44°
2026-05-07 04:15 48.11701 16.56554 617 ft 4 kts 92°
2026-05-07 04:15 48.11701 16.56541 624 ft 0 kts 116°
2026-05-07 04:18 48.11691 16.56573 620 ft 8 kts 116°
2026-05-07 04:18 48.11654 16.56686 619 ft 14 kts 115°
2026-05-07 04:18 48.11614 16.56811 616 ft 14 kts 116°
2026-05-07 04:18 48.11571 16.56911 610 ft 9 kts 147°
2026-05-07 04:19 48.11495 16.56892 609 ft 15 kts 205°
2026-05-07 04:19 48.11396 16.56823 609 ft 14 kts 200°
2026-05-07 04:19 48.11334 16.56892 621 ft 12 kts 116°
2026-05-07 04:19 48.11288 16.57034 613 ft 19 kts 116°
2026-05-07 04:20 48.11224 16.57229 617 ft 20 kts 116°
2026-05-07 04:20 48.11166 16.57407 622 ft 18 kts 116°
2026-05-07 04:20 48.11113 16.57570 615 ft 17 kts 116°
2026-05-07 04:21 48.10993 16.57609 609 ft 10 kts 206°
2026-05-07 04:21 48.10927 16.57548 611 ft 11 kts 236°
2026-05-07 04:21 48.10945 16.57439 623 ft 13 kts 295°
2026-05-07 04:21 48.11050 16.57113 615 ft 67 kts 296°
2026-05-07 04:22 48.11350 16.56196 612 ft 127 kts 296°
2026-05-07 04:22 48.11797 16.54825 752 ft 158 kts 296°
2026-05-07 04:22 48.12157 16.53316 1481 ft 156 kts 269°
2026-05-07 04:22 48.11761 16.51818 2220 ft 161 kts 231°
2026-05-07 04:23 48.10861 16.50718 2693 ft 180 kts 222°
2026-05-07 04:23 48.09799 16.49518 2994 ft 204 kts 221°
2026-05-07 04:23 48.08618 16.48199 3634 ft 213 kts 220°
2026-05-07 04:23 48.07445 16.46884 4405 ft 216 kts 221°
2026-05-07 04:24 48.06215 16.45358 4842 ft 239 kts 223°
2026-05-07 04:24 48.04914 16.43659 5279 ft 260 kts 223°
2026-05-07 04:24 48.03537 16.41835 6077 ft 268 kts 223°
2026-05-07 04:24 48.02114 16.39958 6970 ft 271 kts 222°
2026-05-07 04:25 48.00715 16.38122 7843 ft 272 kts 221°
2026-05-07 04:25 47.99264 16.36226 8749 ft 274 kts 221°
2026-05-07 04:25 47.97895 16.34289 9635 ft 277 kts 230°
2026-05-07 04:25 47.96895 16.31830 10447 ft 280 kts 247°
2026-05-07 04:26 47.96410 16.28914 10925 ft 299 kts 264°
2026-05-07 04:26 47.96562 16.25693 11185 ft 323 kts 276°
2026-05-07 04:26 47.96895 16.22371 11762 ft 332 kts 276°
2026-05-07 04:26 47.97237 16.18942 12506 ft 335 kts 276°
2026-05-07 04:27 47.97576 16.15484 13279 ft 339 kts 275°
2026-05-07 04:27 47.97910 16.11987 14013 ft 342 kts 275°
2026-05-07 04:27 47.98237 16.08458 14687 ft 344 kts 275°
2026-05-07 04:27 47.98564 16.04901 15366 ft 347 kts 275°
2026-05-07 04:28 47.98892 16.01329 16022 ft 349 kts 274°
2026-05-07 04:28 47.99225 15.97712 16666 ft 352 kts 274°
2026-05-07 04:28 47.99558 15.94077 17332 ft 355 kts 274°
2026-05-07 04:28 47.99892 15.90409 17993 ft 358 kts 274°
2026-05-07 04:29 48.00227 15.86713 18587 ft 360 kts 274°
2026-05-07 04:29 48.00565 15.82982 19158 ft 363 kts 274°
2026-05-07 04:29 48.00905 15.79233 19745 ft 366 kts 273°
2026-05-07 04:29 48.01247 15.75460 20333 ft 368 kts 273°
2026-05-07 04:30 48.01591 15.71657 20934 ft 370 kts 273°
2026-05-07 04:30 48.01935 15.67853 21509 ft 372 kts 273°
2026-05-07 04:30 48.02282 15.64008 22057 ft 375 kts 273°
2026-05-07 04:30 48.02628 15.60141 22596 ft 378 kts 273°
2026-05-07 04:31 48.02973 15.56230 23148 ft 380 kts 273°
2026-05-07 04:31 48.03317 15.52308 23652 ft 383 kts 273°
2026-05-07 04:31 48.03662 15.48347 24084 ft 385 kts 273°
2026-05-07 04:31 48.04014 15.44371 24533 ft 387 kts 273°
2026-05-07 04:32 48.04375 15.40373 24972 ft 389 kts 273°
2026-05-07 04:32 48.04656 15.36356 25341 ft 388 kts 267°
2026-05-07 04:32 48.04726 15.32317 25747 ft 389 kts 267°
2026-05-07 04:32 48.04793 15.28265 26156 ft 391 kts 267°
2026-05-07 04:33 48.04860 15.24192 26552 ft 393 kts 266°
2026-05-07 04:33 48.04925 15.20095 26938 ft 395 kts 266°
2026-05-07 04:33 48.04986 15.15985 27310 ft 397 kts 266°
2026-05-07 04:33 48.05046 15.11856 27675 ft 399 kts 266°
2026-05-07 04:34 48.05107 15.07709 27914 ft 400 kts 266°
2026-05-07 04:34 48.05168 15.03614 27955 ft 388 kts 266°
2026-05-07 04:34 48.05229 14.99615 27961 ft 382 kts 266°
2026-05-07 04:34 48.05285 14.95648 27958 ft 380 kts 266°
2026-05-07 04:35 48.05333 14.91709 27957 ft 379 kts 265°
2026-05-07 04:35 48.05376 14.87765 27959 ft 379 kts 265°
2026-05-07 04:35 48.05417 14.83820 27958 ft 380 kts 265°
2026-05-07 04:35 48.05455 14.79883 27957 ft 379 kts 265°
2026-05-07 04:36 48.05489 14.75930 27961 ft 379 kts 265°
2026-05-07 04:36 48.05521 14.71984 27962 ft 379 kts 265°
2026-05-07 04:36 48.05551 14.68046 27963 ft 379 kts 265°
2026-05-07 04:36 48.05581 14.64101 27966 ft 379 kts 265°
2026-05-07 04:37 48.05610 14.60162 27961 ft 379 kts 265°
2026-05-07 04:37 48.05636 14.56228 27966 ft 379 kts 265°
2026-05-07 04:37 48.05662 14.52292 27965 ft 379 kts 265°
2026-05-07 04:37 48.05688 14.48361 27966 ft 379 kts 265°
2026-05-07 04:38 48.05711 14.44423 27965 ft 379 kts 265°
2026-05-07 04:38 48.05725 14.41811 27962 ft 379 kts 265°
2026-05-07 04:38 48.05744 14.37879 27967 ft 379 kts 265°
2026-05-07 04:38 48.05760 14.33950 27966 ft 379 kts 265°
2026-05-07 04:39 48.05777 14.30016 27964 ft 378 kts 265°
2026-05-07 04:39 48.05792 14.26074 27966 ft 378 kts 264°
2026-05-07 04:39 48.05806 14.22149 27966 ft 378 kts 265°
2026-05-07 04:39 48.05820 14.18212 27966 ft 378 kts 264°
2026-05-07 04:40 48.05833 14.14284 27960 ft 378 kts 264°
2026-05-07 04:40 48.05844 14.10359 27964 ft 378 kts 264°
2026-05-07 04:40 48.05855 14.06423 27964 ft 378 kts 265°
2026-05-07 04:40 48.05868 14.02492 27965 ft 378 kts 264°
2026-05-07 04:41 48.05878 13.98564 27961 ft 378 kts 264°
2026-05-07 04:41 48.05886 13.94636 27960 ft 378 kts 264°
2026-05-07 04:41 48.05890 13.90714 27963 ft 378 kts 264°
2026-05-07 04:41 48.05894 13.86780 27841 ft 376 kts 264°
2026-05-07 04:42 48.05898 13.82900 27576 ft 372 kts 264°
2026-05-07 04:42 48.05899 13.79041 27310 ft 370 kts 264°
2026-05-07 04:42 48.05895 13.75216 27052 ft 367 kts 264°
2026-05-07 04:42 48.05892 13.71477 26692 ft 361 kts 264°
2026-05-07 04:43 48.05889 13.67704 26249 ft 357 kts 264°
2026-05-07 04:43 48.05884 13.64022 25854 ft 352 kts 264°
2026-05-07 04:43 48.05876 13.60431 25451 ft 348 kts 264°
2026-05-07 04:43 48.05868 13.56816 25032 ft 345 kts 264°
2026-05-07 04:44 48.05877 13.53244 24590 ft 344 kts 265°
2026-05-07 04:44 48.05992 13.49694 24169 ft 343 kts 268°
2026-05-07 04:44 48.06185 13.46130 23734 ft 342 kts 269°
2026-05-07 04:44 48.06411 13.42604 23255 ft 340 kts 269°
2026-05-07 04:45 48.06638 13.39105 22801 ft 336 kts 269°
2026-05-07 04:45 48.06854 13.35644 22370 ft 333 kts 269°
2026-05-07 04:45 48.07054 13.32213 21930 ft 330 kts 269°
2026-05-07 04:45 48.07240 13.28813 21500 ft 327 kts 269°
2026-05-07 04:46 48.07416 13.25429 21067 ft 325 kts 269°
2026-05-07 04:46 48.07586 13.22072 20627 ft 324 kts 269°
2026-05-07 04:46 48.07754 13.18721 20196 ft 323 kts 270°
2026-05-07 04:46 48.07925 13.15370 19764 ft 322 kts 270°
2026-05-07 04:47 48.08096 13.12040 19329 ft 321 kts 270°
2026-05-07 04:47 48.08265 13.08721 18901 ft 320 kts 271°
2026-05-07 04:47 48.08435 13.05400 18487 ft 320 kts 271°
2026-05-07 04:47 48.08601 13.02084 18026 ft 320 kts 271°
2026-05-07 04:48 48.08764 12.98771 17586 ft 318 kts 271°
2026-05-07 04:48 48.08928 12.95481 17167 ft 317 kts 271°
2026-05-07 04:48 48.09092 12.92202 16762 ft 315 kts 271°
2026-05-07 04:48 48.09301 12.88939 16347 ft 315 kts 274°
2026-05-07 04:49 48.09591 12.85693 15948 ft 314 kts 275°
2026-05-07 04:49 48.09914 12.82467 15547 ft 314 kts 276°
2026-05-07 04:49 48.10246 12.79239 15140 ft 313 kts 276°
2026-05-07 04:49 48.10572 12.76015 14733 ft 313 kts 276°
2026-05-07 04:50 48.10891 12.72791 14324 ft 313 kts 276°
2026-05-07 04:50 48.11202 12.69562 13917 ft 313 kts 275°
2026-05-07 04:50 48.11507 12.66341 13470 ft 313 kts 275°
2026-05-07 04:50 48.11807 12.63116 13046 ft 312 kts 275°
2026-05-07 04:51 48.12099 12.59948 12625 ft 310 kts 275°
2026-05-07 04:51 48.12392 12.56766 12213 ft 309 kts 275°
2026-05-07 04:51 48.12684 12.53589 11780 ft 307 kts 275°
2026-05-07 04:51 48.12974 12.50423 11364 ft 306 kts 275°
2026-05-07 04:52 48.13261 12.47267 10945 ft 305 kts 275°
2026-05-07 04:52 48.13546 12.44122 10516 ft 304 kts 275°
2026-05-07 04:52 48.13830 12.40998 10163 ft 301 kts 275°
2026-05-07 04:52 48.14109 12.37972 9965 ft 287 kts 275°
2026-05-07 04:53 48.14376 12.35043 9637 ft 280 kts 275°
2026-05-07 04:53 48.14731 12.32172 9493 ft 282 kts 288°
2026-05-07 04:53 48.15861 12.29786 9102 ft 288 kts 320°
2026-05-07 04:53 48.17584 12.28252 8710 ft 289 kts 333°
2026-05-07 04:54 48.19454 12.27131 8280 ft 291 kts 338°
2026-05-07 04:54 48.21367 12.26135 7820 ft 292 kts 339°
2026-05-07 04:54 48.23262 12.25135 7358 ft 285 kts 338°
2026-05-07 04:54 48.25106 12.24096 6902 ft 282 kts 337°
2026-05-07 04:55 48.26919 12.23009 6460 ft 279 kts 336°
2026-05-07 04:55 48.28712 12.21885 5993 ft 280 kts 335°
2026-05-07 04:55 48.30491 12.20740 5686 ft 274 kts 335°
2026-05-07 04:55 48.32185 12.19637 5603 ft 254 kts 334°
2026-05-07 04:56 48.33733 12.18628 5517 ft 232 kts 334°
2026-05-07 04:56 48.35171 12.17677 5435 ft 220 kts 330°
2026-05-07 04:56 48.36304 12.16287 5339 ft 205 kts 303°
2026-05-07 04:56 48.36870 12.14404 5235 ft 195 kts 278°
2026-05-07 04:57 48.36872 12.12417 5135 ft 192 kts 263°
2026-05-07 04:57 48.36721 12.10391 5036 ft 192 kts 263°
2026-05-07 04:57 48.36576 12.08420 4939 ft 192 kts 264°
2026-05-07 04:57 48.36429 12.06426 4856 ft 191 kts 264°
2026-05-07 04:58 48.36282 12.04440 4715 ft 192 kts 264°
2026-05-07 04:58 48.36134 12.02446 4482 ft 191 kts 264°
2026-05-07 04:58 48.35985 12.00456 4238 ft 191 kts 264°
2026-05-07 04:58 48.35837 11.98467 3991 ft 190 kts 264°
2026-05-07 04:59 48.35690 11.96508 3721 ft 187 kts 264°
2026-05-07 04:59 48.35547 11.94594 3468 ft 179 kts 264°
2026-05-07 04:59 48.35413 11.92816 3257 ft 166 kts 264°
2026-05-07 04:59 48.35286 11.91125 3042 ft 162 kts 264°
2026-05-07 05:00 48.35162 11.89484 2846 ft 149 kts 263°
2026-05-07 05:00 48.35049 11.87978 2611 ft 141 kts 263°
2026-05-07 05:00 48.34939 11.86527 2386 ft 138 kts 263°
2026-05-07 05:00 48.34829 11.85085 2152 ft 137 kts 263°
2026-05-07 05:01 48.34721 11.83687 1916 ft 136 kts 262°
2026-05-07 05:01 48.34615 11.82284 1738 ft 134 kts 263°
2026-05-07 05:01 48.34514 11.80890 1592 ft 134 kts 263°
2026-05-07 05:01 48.34410 11.79543 1477 ft 118 kts 261°
2026-05-07 05:02 48.34344 11.78687 1485 ft 51 kts 264°
2026-05-07 05:02 48.34309 11.78242 1485 ft 33 kts 264°
2026-05-07 05:02 48.34322 11.78001 1475 ft 23 kts 283°
2026-05-07 05:02 48.34377 11.77782 1484 ft 23 kts 294°
2026-05-07 05:03 48.34439 11.77565 1478 ft 23 kts 293°
2026-05-07 05:03 48.34528 11.77441 1483 ft 18 kts 347°
2026-05-07 05:03 48.34623 11.77461 1480 ft 12 kts 56°
2026-05-07 05:03 48.34643 11.77625 1485 ft 21 kts 84°
2026-05-07 05:04 48.34659 11.77849 1485 ft 22 kts 83°
2026-05-07 05:04 48.34676 11.78075 1485 ft 22 kts 83°
2026-05-07 05:04 48.34694 11.78303 1485 ft 22 kts 83°
2026-05-07 05:04 48.34712 11.78536 1478 ft 23 kts 84°
2026-05-07 05:05 48.34731 11.78778 1485 ft 24 kts 83°
2026-05-07 05:05 48.34751 11.79034 1482 ft 26 kts 83°
2026-05-07 05:05 48.34772 11.79309 1477 ft 27 kts 83°
2026-05-07 05:05 48.34790 11.79515 1484 ft 13 kts 73°
2026-05-07 05:06 48.34862 11.79556 1485 ft 12 kts 352°
2026-05-07 05:06 48.34953 11.79541 1485 ft 14 kts 354°
2026-05-07 05:06 48.35046 11.79547 1485 ft 13 kts 36°
2026-05-07 05:06 48.35070 11.79680 1485 ft 15 kts 83°
2026-05-07 05:07 48.35084 11.79864 1478 ft 19 kts 83°
2026-05-07 05:07 48.35098 11.80051 1480 ft 17 kts 84°
2026-05-07 05:07 48.35136 11.80162 1483 ft 11 kts 12°
2026-05-07 05:07 48.35219 11.80151 1480 ft 15 kts 353°
2026-05-07 05:08 48.35336 11.80131 1481 ft 18 kts 353°
2026-05-07 05:08 48.35451 11.80103 1485 ft 17 kts 353°
2026-05-07 05:08 48.35568 11.80084 1475 ft 17 kts 354°
2026-05-07 05:08 48.35631 11.80065 1482 ft 6 kts 323°
2026-05-07 05:09 48.35634 11.80010 1482 ft 5 kts 263°
2026-05-07 05:09 48.35631 11.79977 1485 ft 0 kts 263°